SCP
0 0 0 0 0 0 0 -0 -0 0 0 0 -0 -0 -0 -0 -0 -0 -0 -0 -0 -0 0 0 0 0 0 0 0 0 0 -0 -0 -0 -0 -0 -0 -0 -0 0 -0 -0 -0
-0 0 0 0 0 0 0 0 0 0 0 0 -0 -0 -0 -0 -0 -0 -0 -0 -0 -0 -0 -0 0 0 0 0 0 0 0 0 -0 -0 0 0 -0 -0 -0 0 -0 0 0
0 0 0 0 -0 0 0 0 0 0 -0 -0 -0 -0 -0 -0 -0 -0 -0 -0 -0 -0 -0 -0 -0 -0 -0 -0 0 0 0 0 0 0 0 0 -0 -0 -0 -0 -0 0 0
0 0 0 0 -0 -0 -0 -0 0 -0 -0 -0 -0 -0 -0 -0 -0 -0 -0 -0 -0 -0 -0 -0 -0 0 -0 -0 0 0 0 0 0 0 0 0 0 -0 -0 -0 -0 -0 -0
0 0 0 -0 -0 -0 -0 -0 -0 0 -0 -0 -0 -0 -0 -0 -0 -0 -0 -0 -0 -0 -0 -0 -0 0 0 0 0 0 0 0 0 0 0 0 0 0 -0 -0 -0 -0 -0
0 0 -0 -0 -0 -0 -0 -0 -0 -0 -0 -0 -0 -0 -0 -0 -0 -0 0 -0 0 0 0 0 0 0 0 0 0 0 0 0 0 0 0 0 0 0 0 0 0 0 0
-0 -0 -0 -0 -0 -0 -0 -0 -0 -0 -0 -0 -0 -0 -0 -0 -0 -0 -0 0 0 0 -0 -0 0 0 0 0 0 0 0 0 0 0 -0 -0 -0 0 0 0 0 0 0
0 0 -0 -0 -0 -0 -0 -0 -0 -0 -0 -0 -0 -0 -0 -0 -0 -0 -0 -0 0 0 0 -0 0 0 0 0 0 0 0 0 0 0 -0 -0 -0 0 0 0 0 0 0
0 0 0 0 -0 -0 -0 -0 -0 -0 -0 -0 -0 -0 -0 -0 -0 -0 -0 -0 -0 0 0 0 0 0 0 0 0 0 0 0 0 0 0 0 -0 0 0 0 0 0 0
0 0 0 0 0 0 0 0 -0 -0 -0 -0 -0 -0 -0 -0 -0 -0 -0 -0 -0 0 0 0 0 0 0 0 0 0 0 0 0 0 0 0 -0 0 0 0 0 0 0
0 0 0 0 0 0 0 0 0 0 0 0 0 0 0 0 0 0 0 0 0 0 0 0 0 0 0 0 0 0 0 0 0 0 0 0 0 0 0 0 0 0 0
0 0 0 0 0 0 0 0 0 0 0 0 0 0 0 0 0 0 0 0 0 0 0 0 0 0 0 0 0 0 0 0 0 0 0 0 0 0 0 0 0 0 0
0 0 0 0 0 0 0 0 0 0 0 0 0 0 0 0 0 0 0 0 0 0 0 0 0 0 0 0 0 0 0 0 0 0 0 0 0 0 0 0 0 0 0
0 0 0 0 0 0 0 0 0 0 0 0 0 0 0 0 0 0 0 0 0 0 0 0 0 0 0 0 0 0 0 0 0 0 0 0 0 0 0 0 0 0 0
0 0 0 0 0 0 0 0 0 0 0 0 0 0 0 0 0 0 0 0 0 0 0 0 0 0 0 0 0 0 0 0 0 0 0 0 0 0 0 0 0 0 0
0 0 0 0 0 0 0 0 0 0 0 0 0 0 0 0 0 0 0 0 0 0 0 0 0 0 0 0 0 0 0 0 0 0 0 0 0 0 0 0 0 0 0
0 0 0 0 0 0 0 0 0 0 0 0 0 0 0 0 0 0 0 0 0 0 0 0 0 0 0 0 0 0 0 0 0 0 0 0 0 0 0 0 0 0 0
0 0 0 0 0 0 0 0 0 0 0 0 0 0 0 0 0 0 0 0 0 0 0 0 0 0 0 0 0 0 0 0 0 0 0 0 0 0 0 0 0 0 0
0 0 0 0 0 0 0 0 0 0 0 0 0 0 0 0 0 0 0 0 0 0 0 0 0 0 0 0 0 0 0 0 0 0 0 0 0 0 0 0 0 0 0
0 0 0 0 0 0 0 0 0 0 0 0 0 0 0 0 0 0 0 0 0 0 0 0 0 0 0 0 0 0 0 0 0 0 0 0 0 0 0 0 0 0 0
0 0 0 0 0 0 0 0 0 0 0 0 0 0 0 0 0 0 0 0 0 0 0 0 0 0 0 0 0 0 0 0 0 0 0 0 0 0 0 0 0 0 0
0 0 0 0 0 0 0 0 0 0 0 0 0 0 0 0 0 0 0 0 0 0 0 0 0 0 0 0 0 0 0 0 0 0 0 0 0 0 0 0 0 0 0
0 0 0 0 0 0 0 0 0 0 0 0 0 0 0 0 0 0 0 0 0 0 0 0 0 0 0 0 0 0 0 0 0 0 0 0 0 0 0 0 0 0 0
0 0 0 0 0 0 0 0 0 0 0 0 0 0 0 0 0 0 0 0 0 0 0 0 0 0 0 0 0 0 0 0 0 0 0 0 0 0 0 0 0 0 0
0 0 0 0 0 0 0 0 0 0 0 0 0 0 0 0 0 0 0 0 0 0 0 0 0 0 0 0 0 0 0 0 0 0 0 0 0 0 0 0 0 0 0
0 0 0 0 0 0 0 0 0 0 0 0 0 0 0 0 0 0 0 0 0 0 0 0 0 0 0 0 0 0 0 0 0 0 0 0 0 0 0 0 0 0 0
Wind_Speed_500mb
35 34 32 30 23 20 18 19 23 26 32 32 23 24 25 21 18 23 31 29 17 20 37 33 30 26 31 35 35 34 34 34 34 37 39 38 39 39 40 41 39 37 34
37 36 34 29 23 20 18 19 22 25 31 30 21 19 18 19 17 20 26 28 18 29 29 28 26 27 29 30 32 31 31 31 30 32 33 33 32 31 31 32 30 32 32
38 36 35 30 23 18 16 18 20 21 26 27 22 17 16 17 16 15 25 27 26 22 26 28 26 28 26 26 28 28 25 24 24 24 25 28 24 23 25 25 24 22 23
37 36 36 30 23 18 15 16 17 16 20 23 21 15 14 18 16 14 23 24 26 21 23 24 26 23 22 23 23 22 21 19 18 15 14 16 15 17 21 19 17 19 19
38 35 35 29 23 18 15 14 15 14 17 20 18 11 13 13 16 14 18 22 21 20 21 21 23 21 20 20 19 19 19 18 15 15 15 17 20 20 20 18 15 16 17
37 35 33 27 23 17 13 12 12 13 15 19 18 20 10 8 12 13 11 13 14 16 15 17 20 19 19 17 17 16 16 16 14 15 18 21 19 17 15 12 8 8 11
38 36 32 26 22 18 15 13 12 13 15 23 19 25 18 6 6 10 11 10 10 10 11 12 15 15 15 14 14 13 14 14 14 14 15 17 15 13 12 11 8 9 13
33 34 31 26 22 18 16 14 13 12 13 15 17 19 18 14 6 9 12 10 7 7 8 6 8 8 9 10 10 10 10 11 11 11 12 12 12 10 11 9 6 8 12
33 32 31 26 22 20 17 16 15 14 13 13 15 13 14 16 15 11 12 10 7 8 8 7 7 5 3 3 4 5 6 6 6 6 6 6 5 7 11 7 7 8 9
34 34 33 29 23 20 19 18 16 15 15 15 17 17 12 16 18 14 13 13 12 10 11 11 11 9 7 5 3 3 2 3 1 0 0 1 3 6 9 9 12 12 11
39 37 35 32 28 24 22 20 18 17 16 16 17 17 15 13 13 12 12 10 13 15 15 15 16 16 15 13 11 9 9 7 7 6 6 7 7 8 10 10 11 13 15
41 41 39 36 33 29 26 24 21 20 18 16 16 18 18 17 16 17 16 12 10 16 19 19 21 23 22 20 19 18 16 16 15 15 14 13 13 13 15 15 14 13 15
38 39 39 38 37 35 32 30 29 27 24 21 18 17 19 20 21 22 21 21 18 14 16 21 25 26 27 27 27 26 26 25 24 23 21 21 21 20 20 21 19 17 16
39 36 36 36 38 39 38 37 34 33 30 28 24 23 22 21 22 22 24 24 23 22 22 24 27 30 31 32 33 34 34 33 33 33 30 29 29 29 27 26 25 24 21
35 34 35 37 38 38 42 42 41 38 36 32 31 29 28 27 27 26 25 26 27 27 27 27 28 30 34 36 38 40 41 41 41 41 40 37 37 37 36 34 33 31 29
33 33 34 37 37 39 41 42 43 41 39 37 36 34 34 32 32 32 31 29 28 28 29 29 32 34 36 40 44 44 46 47 48 49 48 45 45 45 44 43 40 39 36
32 32 35 38 41 42 42 42 41 41 40 40 37 37 37 36 34 33 33 34 32 31 32 34 35 38 42 43 47 48 50 52 53 55 56 56 54 53 52 51 49 47 46
39 39 38 41 44 46 47 46 45 41 40 41 39 37 37 36 35 35 36 34 32 35 37 39 39 41 45 47 50 51 52 56 58 60 60 62 64 63 60 59 58 56 53
47 46 47 47 48 48 49 50 49 47 45 43 41 41 37 37 37 38 39 37 35 38 41 43 46 47 50 50 49 55 56 59 61 63 65 65 68 68 68 67 63 63 62
57 58 55 54 54 50 50 52 54 52 50 47 47 44 41 39 39 40 42 41 40 43 44 46 49 49 54 57 57 62 64 64 67 69 68 68 71 72 71 74 71 70 68
50 49 56 58 58 58 58 57 56 55 49 48 47 45 43 41 39 40 43 44 42 44 44 46 49 53 57 56 61 67 67 70 72 73 69 65 65 63 64 69 75 76 76
54 48 45 47 48 54 64 64 61 57 53 48 46 43 40 38 38 39 40 41 41 42 43 45 47 52 56 56 58 63 69 67 69 61 63 64 62 54 51 48 55 54 60
63 61 58 51 46 44 40 54 66 67 63 55 46 38 33 31 30 29 30 34 38 41 43 45 46 49 54 57 56 54 31 31 60 63 54 68 66 58 58 57 55 51 49
64 65 65 65 60 52 47 43 52 59 60 54 49 44 39 36 35 36 37 38 40 43 46 46 47 48 51 53 56 59 61 63 61 64 63 60 74 75 73 71 67 63 66
29 32 40 52 62 58 50 43 37 41 45 47 48 47 46 46 45 45 46 43 44 44 44 46 45 43 44 48 50 54 61 63 63 69 66 74 80 76 75 76 78 76 73
30 30 27 35 51 49 44 41 39 36 36 40 43 44 45 45 46 44 40 39 40 40 39 38 40 43 45 50 53 57 58 56 59 64 69 67 72 84 84 89 84 83 78
Wind_Direction_500mb
157 154 154 160 148 133 123 120 126 128 132 123 130 130 129 126 120 109 114 107 106 115 112 115 115 103 95 95 93 95 97 91 87 86 82 77 73 74 72 64 65 68 74
156 156 158 160 145 136 126 121 128 131 142 132 141 135 135 135 126 122 127 125 110 97 105 116 110 99 94 98 103 100 102 102 95 94 91 88 83 78 74 70 67 64 67
159 161 160 160 149 140 130 127 133 136 144 146 141 133 131 131 134 118 128 141 112 100 102 105 103 104 100 99 97 98 99 101 101 101 102 100 101 94 83 81 79 76 77
164 163 162 160 157 148 139 135 135 140 144 157 156 142 113 115 136 140 132 144 118 109 108 101 99 106 105 100 97 92 93 96 98 93 98 100 104 99 89 95 88 91 89
166 166 163 162 160 155 147 141 137 144 137 149 156 147 131 121 126 140 124 131 133 123 118 105 99 101 100 96 95 91 86 89 87 88 98 98 86 75 82 82 82 86 69
165 166 166 166 165 162 155 149 146 147 150 139 135 124 153 123 119 128 123 119 118 132 127 110 109 101 95 89 86 84 86 86 80 84 95 93 87 72 62 60 65 63 45
166 167 171 171 171 169 169 165 162 159 158 151 155 151 154 166 123 128 139 127 136 140 142 127 115 108 98 86 78 76 80 81 84 88 87 86 80 59 39 49 49 58 28
174 171 176 177 179 180 178 174 172 173 170 176 172 163 157 185 187 160 153 139 159 170 173 157 136 121 101 88 77 79 82 87 86 92 92 87 76 38 30 46 26 22 10
179 181 184 187 186 186 186 183 181 181 179 185 191 191 177 176 187 191 191 183 179 196 206 216 197 176 141 100 86 76 77 91 94 88 91 91 69 8 14 17 340 334 350
186 191 194 195 196 196 196 193 193 191 188 189 200 212 215 198 192 203 215 213 206 214 223 227 232 228 232 247 243 285 346 6 7 35 26 276 337 339 347 344 333 333 334
193 198 201 204 205 207 208 206 206 206 206 204 210 221 226 223 229 229 230 220 214 221 229 236 241 245 249 256 264 266 278 286 292 295 285 281 290 303 311 318 318 313 324
197 201 205 209 212 215 217 219 222 226 225 222 223 231 234 236 241 250 258 274 244 239 228 237 244 250 255 260 265 272 269 275 282 287 287 290 290 288 291 302 302 301 297
203 206 211 213 216 220 224 226 228 232 235 237 237 241 240 241 248 257 261 269 276 270 253 250 250 255 260 263 266 268 271 274 277 280 282 283 284 286 286 286 288 290 288
213 215 218 220 224 225 228 231 235 238 242 245 247 246 248 250 253 258 263 266 268 270 265 262 258 255 259 264 268 270 273 275 276 278 281 282 282 281 282 281 282 284 279
225 225 227 229 231 233 236 239 239 240 243 247 249 251 252 253 256 259 263 265 266 269 269 266 265 263 263 264 266 270 273 275 275 276 279 280 282 282 282 281 280 279 275
229 230 232 238 240 241 243 247 248 249 251 250 252 253 254 255 255 257 260 265 268 269 269 269 267 266 265 264 266 268 271 272 275 275 276 277 278 279 279 278 277 277 273
244 244 243 244 243 245 248 251 253 253 254 255 254 255 257 256 259 261 263 265 269 272 272 271 271 272 271 272 272 272 273 273 273 274 275 276 277 275 275 276 275 273 272
245 247 251 250 249 249 250 251 254 254 256 259 258 256 255 260 262 264 267 271 273 271 274 275 276 276 276 278 280 281 278 277 276 275 275 275 276 276 274 273 274 272 270
251 251 251 251 253 253 253 254 255 256 254 255 256 257 257 258 264 269 271 273 275 276 274 276 277 280 283 284 286 286 285 282 280 278 276 276 277 277 277 276 273 271 270
254 253 253 250 250 252 254 254 254 255 254 254 255 257 258 258 262 269 274 277 277 277 278 279 281 283 284 286 289 287 287 285 285 283 282 281 281 281 279 278 277 274 271
251 252 249 251 250 248 247 247 249 250 253 254 256 257 260 263 266 268 273 276 277 279 285 284 283 282 284 286 288 290 291 290 288 287 289 288 283 283 280 276 273 274 273
254 252 247 249 252 252 249 248 249 253 256 257 259 260 262 264 265 267 271 276 278 278 280 283 283 285 285 287 284 289 292 296 297 302 301 298 295 290 283 283 282 280 278
254 250 251 249 245 246 252 247 245 247 250 250 249 253 260 264 265 262 266 271 276 279 281 282 284 285 286 288 288 285 279 283 298 301 294 296 296 288 287 287 286 283 278
257 253 251 248 242 239 241 247 243 242 242 244 248 256 259 259 259 262 265 268 273 276 279 283 279 281 283 285 290 288 287 288 282 295 294 288 287 291 294 291 288 281 278
240 241 249 243 230 228 232 237 243 241 241 244 249 253 256 258 260 263 266 269 272 274 275 277 281 285 282 282 279 283 286 288 285 276 280 290 294 292 290 288 290 289 286
227 227 230 228 224 228 227 230 232 235 236 238 244 250 256 261 264 266 270 271 271 270 274 277 278 279 281 282 283 282 275 273 278 283 283 283 283 291 292 294 295 293 292
Wind_Speed_850mb
35 34 32 30 23 20 18 19 23 26 32 32 23 24 25 21 18 23 31 29 17 20 37 33 30 26 31 35 35 34 34 34 34 37 39 38 39 39 40 41 39 37 34
37 36 34 29 23 20 18 19 22 25 31 30 21 19 18 19 17 20 26 28 18 29 29 28 26 27 29 30 32 31 31 31 30 32 33 33 32 31 31 32 30 32 32
38 36 35 30 23 18 16 18 20 21 26 27 22 17 16 17 16 15 25 27 26 22 26 28 26 28 26 26 28 28 25 24 24 24 25 28 24 23 25 25 24 22 23
37 36 36 30 23 18 15 16 17 16 20 23 21 15 14 18 16 14 23 24 26 21 23 24 26 23 22 23 23 22 21 19 18 15 14 16 15 17 21 19 17 19 19
38 35 35 29 23 18 15 14 15 14 17 20 18 11 13 13 16 14 18 22 21 20 21 21 23 21 20 20 19 19 19 18 15 15 15 17 20 20 20 18 15 16 17
37 35 33 27 23 17 13 12 12 13 15 19 18 20 10 8 12 13 11 13 14 16 15 17 20 19 19 17 17 16 16 16 14 15 18 21 19 17 15 12 8 8 11
38 36 32 26 22 18 15 13 12 13 15 23 19 25 18 6 6 10 11 10 10 10 11 12 15 15 15 14 14 13 14 14 14 14 15 17 15 13 12 11 8 9 13
33 34 31 26 22 18 16 14 13 12 13 15 17 19 18 14 6 9 12 10 7 7 8 6 8 8 9 10 10 10 10 11 11 11 12 12 12 10 11 9 6 8 12
33 32 31 26 22 20 17 16 15 14 13 13 15 13 14 16 15 11 12 10 7 8 8 7 7 5 3 3 4 5 6 6 6 6 6 6 5 7 11 7 7 8 9
34 34 33 29 23 20 19 18 16 15 15 15 17 17 12 16 18 14 13 13 12 10 11 11 11 9 7 5 3 3 2 3 1 0 0 1 3 6 9 9 12 12 11
39 37 35 32 28 24 22 20 18 17 16 16 17 17 15 13 13 12 12 10 13 15 15 15 16 16 15 13 11 9 9 7 7 6 6 7 7 8 10 10 11 13 15
41 41 39 36 33 29 26 24 21 20 18 16 16 18 18 17 16 17 16 12 10 16 19 19 21 23 22 20 19 18 16 16 15 15 14 13 13 13 15 15 14 13 15
38 39 39 38 37 35 32 30 29 27 24 21 18 17 19 20 21 22 21 21 18 14 16 21 25 26 27 27 27 26 26 25 24 23 21 21 21 20 20 21 19 17 16
39 36 36 36 38 39 38 37 34 33 30 28 24 23 22 21 22 22 24 24 23 22 22 24 27 30 31 32 33 34 34 33 33 33 30 29 29 29 27 26 25 24 21
35 34 35 37 38 38 42 42 41 38 36 32 31 29 28 27 27 26 25 26 27 27 27 27 28 30 34 36 38 40 41 41 41 41 40 37 37 37 36 34 33 31 29
33 33 34 37 37 39 41 42 43 41 39 37 36 34 34 32 32 32 31 29 28 28 29 29 32 34 36 40 44 44 46 47 48 49 48 45 45 45 44 43 40 39 36
32 32 35 38 41 42 42 42 41 41 40 40 37 37 37 36 34 33 33 34 32 31 32 34 35 38 42 43 47 48 50 52 53 55 56 56 54 53 52 51 49 47 46
39 39 38 41 44 46 47 46 45 41 40 41 39 37 37 36 35 35 36 34 32 35 37 39 39 41 45 47 50 51 52 56 58 60 60 62 64 63 60 59 58 56 53
47 46 47 47 48 48 49 50 49 47 45 43 41 41 37 37 37 38 39 37 35 38 41 43 46 47 50 50 49 55 56 59 61 63 65 65 68 68 68 67 63 63 62
57 58 55 54 54 50 50 52 54 52 50 47 47 44 41 39 39 40 42 41 40 43 44 46 49 49 54 57 57 62 64 64 67 69 68 68 71 72 71 74 71 70 68
50 49 56 58 58 58 58 57 56 55 49 48 47 45 43 41 39 40 43 44 42 44 44 46 49 53 57 56 61 67 67 70 72 73 69 65 65 63 64 69 75 76 76
54 48 45 47 48 54 64 64 61 57 53 48 46 43 40 38 38 39 40 41 41 42 43 45 47 52 56 56 58 63 69 67 69 61 63 64 62 54 51 48 55 54 60
63 61 58 51 46 44 40 54 66 67 63 55 46 38 33 31 30 29 30 34 38 41 43 45 46 49 54 57 56 54 31 31 60 63 54 68 66 58 58 57 55 51 49
64 65 65 65 60 52 47 43 52 59 60 54 49 44 39 36 35 36 37 38 40 43 46 46 47 48 51 53 56 59 61 63 61 64 63 60 74 75 73 71 67 63 66
29 32 40 52 62 58 50 43 37 41 45 47 48 47 46 46 45 45 46 43 44 44 44 46 45 43 44 48 50 54 61 63 63 69 66 74 80 76 75 76 78 76 73
30 30 27 35 51 49 44 41 39 36 36 40 43 44 45 45 46 44 40 39 40 40 39 38 40 43 45 50 53 57 58 56 59 64 69 67 72 84 84 89 84 83 78
Wind_Direction_850mb
157 154 154 160 148 133 123 120 126 128 132 123 130 130 129 126 120 109 114 107 106 115 112 115 115 103 95 95 93 95 97 91 87 86 82 77 73 74 72 64 65 68 74
156 156 158 160 145 136 126 121 128 131 142 132 141 135 135 135 126 122 127 125 110 97 105 116 110 99 94 98 103 100 102 102 95 94 91 88 83 78 74 70 67 64 67
159 161 160 160 149 140 130 127 133 136 144 146 141 133 131 131 134 118 128 141 112 100 102 105 103 104 100 99 97 98 99 101 101 101 102 100 101 94 83 81 79 76 77
164 163 162 160 157 148 139 135 135 140 144 157 156 142 113 115 136 140 132 144 118 109 108 101 99 106 105 100 97 92 93 96 98 93 98 100 104 99 89 95 88 91 89
166 166 163 162 160 155 147 141 137 144 137 149 156 147 131 121 126 140 124 131 133 123 118 105 99 101 100 96 95 91 86 89 87 88 98 98 86 75 82 82 82 86 69
165 166 166 166 165 162 155 149 146 147 150 139 135 124 153 123 119 128 123 119 118 132 127 110 109 101 95 89 86 84 86 86 80 84 95 93 87 72 62 60 65 63 45
166 167 171 171 171 169 169 165 162 159 158 151 155 151 154 166 123 128 139 127 136 140 142 127 115 108 98 86 78 76 80 81 84 88 87 86 80 59 39 49 49 58 28
174 171 176 177 179 180 178 174 172 173 170 176 172 163 157 185 187 160 153 139 159 170 173 157 136 121 101 88 77 79 82 87 86 92 92 87 76 38 30 46 26 22 10
179 181 184 187 186 186 186 183 181 181 179 185 191 191 177 176 187 191 191 183 179 196 206 216 197 176 141 100 86 76 77 91 94 88 91 91 69 8 14 17 340 334 350
186 191 194 195 196 196 196 193 193 191 188 189 200 212 215 198 192 203 215 213 206 214 223 227 232 228 232 247 243 285 346 6 7 35 26 276 337 339 347 344 333 333 334
193 198 201 204 205 207 208 206 206 206 206 204 210 221 226 223 229 229 230 220 214 221 229 236 241 245 249 256 264 266 278 286 292 295 285 281 290 303 311 318 318 313 324
197 201 205 209 212 215 217 219 222 226 225 222 223 231 234 236 241 250 258 274 244 239 228 237 244 250 255 260 265 272 269 275 282 287 287 290 290 288 291 302 302 301 297
203 206 211 213 216 220 224 226 228 232 235 237 237 241 240 241 248 257 261 269 276 270 253 250 250 255 260 263 266 268 271 274 277 280 282 283 284 286 286 286 288 290 288
213 215 218 220 224 225 228 231 235 238 242 245 247 246 248 250 253 258 263 266 268 270 265 262 258 255 259 264 268 270 273 275 276 278 281 282 282 281 282 281 282 284 279
225 225 227 229 231 233 236 239 239 240 243 247 249 251 252 253 256 259 263 265 266 269 269 266 265 263 263 264 266 270 273 275 275 276 279 280 282 282 282 281 280 279 275
229 230 232 238 240 241 243 247 248 249 251 250 252 253 254 255 255 257 260 265 268 269 269 269 267 266 265 264 266 268 271 272 275 275 276 277 278 279 279 278 277 277 273
244 244 243 244 243 245 248 251 253 253 254 255 254 255 257 256 259 261 263 265 269 272 272 271 271 272 271 272 272 272 273 273 273 274 275 276 277 275 275 276 275 273 272
245 247 251 250 249 249 250 251 254 254 256 259 258 256 255 260 262 264 267 271 273 271 274 275 276 276 276 278 280 281 278 277 276 275 275 275 276 276 274 273 274 272 270
251 251 251 251 253 253 253 254 255 256 254 255 256 257 257 258 264 269 271 273 275 276 274 276 277 280 283 284 286 286 285 282 280 278 276 276 277 277 277 276 273 271 270
254 253 253 250 250 252 254 254 254 255 254 254 255 257 258 258 262 269 274 277 277 277 278 279 281 283 284 286 289 287 287 285 285 283 282 281 281 281 279 278 277 274 271
251 252 249 251 250 248 247 247 249 250 253 254 256 257 260 263 266 268 273 276 277 279 285 284 283 282 284 286 288 290 291 290 288 287 289 288 283 283 280 276 273 274 273
254 252 247 249 252 252 249 248 249 253 256 257 259 260 262 264 265 267 271 276 278 278 280 283 283 285 285 287 284 289 292 296 297 302 301 298 295 290 283 283 282 280 278
254 250 251 249 245 246 252 247 245 247 250 250 249 253 260 264 265 262 266 271 276 279 281 282 284 285 286 288 288 285 279 283 298 301 294 296 296 288 287 287 286 283 278
257 253 251 248 242 239 241 247 243 242 242 244 248 256 259 259 259 262 265 268 273 276 279 283 279 281 283 285 290 288 287 288 282 295 294 288 287 291 294 291 288 281 278
240 241 249 243 230 228 232 237 243 241 241 244 249 253 256 258 260 263 266 269 272 274 275 277 281 285 282 282 279 283 286 288 285 276 280 290 294 292 290 288 290 289 286
227 227 230 228 224 228 227 230 232 235 236 238 244 250 256 261 264 266 270 271 271 270 274 277 278 279 281 282 283 282 275 273 278 283 283 283 283 291 292 294 295 293 292